ELEKTRO-L 4

Last updated on Thu Nov 21 2024 00:02:45 GMT+0000 (Coordinated Universal Time)

1 55506U 23016A 24325.37309657 -.00000057 00000+0 00000+0 0 9990 2 55506 0.0039 282.0064 0003327 335.4716 102.5014 1.00271532 6562
UTC large
Height (km)
Speed (km/s)
/
Latitude / Longitude
Inclination (degrees)
Orbital Period (minutes)
Azimuth
Elevation
Range (km)
Doppler Factor

Next 0 passes for location: London (51.5072 / 0.1276)

Sorry there are no passes over London.